Flag for U.S.A. Weather past 2 weeks in Garland, Texas, U.S.A.

Now
72 °F

More clouds than sun.


Feels Like: 71 °F
Forecast: 68 / 80 °F
Wind: 7 mph from North

Location: Mesquite Metro Airport

Current Time: Aug 1, 2014 at 12:29:34 PM

Latest Report: Aug 1, 2014 at 11:47 AM


Visibility: 10 mi

Pressure: 30.06 "Hg

Humidity: 83%

Dew point: 66 °F

Location of GarlandLocation

Historic Weather in Garland — Graph

°F

Garland temperature yesterday

Maximum temperature yesterday: 84 °F (at 12:47 PM)
Minimum temperature yesterday: 68 °F (at 11:15 PM)
Average temperature yesterday: 75 °F

Past Weeks' High & Low Weather Summary

 TemperatureHumidityPressure
High100 °F (Jul 27, 4:50 PM)100% (Jul 17, 12:50 PM)30.16 "Hg (Jul 17, 12:50 PM)
Low63 °F (Jul 20, 6:50 AM)29% (Jul 27, 4:50 PM)29.89 "Hg (Jul 17, 6:50 PM)
Average76 °F77%30.02 "Hg
* Reported Jul 17 10:50 AM — Aug 1 10:50 AM, Garland, Weather by CustomWeather, © 2014

Note: Actual official high and low records may vary slightly from our data, if they occured in-between our weather recording intervals... More about our weather records

Advertising

Garland weather history for previous 24 hours

 ConditionsComfort  
Time TempWeatherWind HumidityBarometerVisibility
10:50 AM
Aug 1
72 °FOvercast.8 mph83%30.06 "Hg10 mi
9:50 AM70 °FOvercast.6 mph88%30.05 "Hg7 mi
8:50 AM70 °FMostly cloudy.3 mph88%30.05 "Hg7 mi
7:47 AM68 °FLow clouds.5 mph94%30.03 "Hg2 mi
6:55 AM68 °FLow clouds.6 mph94%30.02 "Hg7 mi
5:35 AM69 °FLow clouds.6 mph95%30.01 "Hg7 mi
5:15 AM68 °FLow clouds.6 mph96%30.01 "Hg10 mi
4:55 AM68 °FLow clouds.3 mph96%30.00 "Hg5 mi
4:35 AM68 °FLow clouds.6 mph96%30.01 "Hg5 mi
4:15 AM68 °FLow clouds.6 mph96%30.01 "Hg7 mi
3:55 AM68 °FLow clouds.5 mph95%30.00 "Hg5 mi
3:35 AM68 °FLow clouds.7 mph95%30.01 "Hg5 mi
3:15 AM68 °FLow clouds.6 mph94%30.01 "Hg7 mi
2:55 AM69 °FLow clouds.6 mph94%30.01 "Hg10 mi
2:35 AM69 °FLow clouds.5 mph94%30.01 "Hg10 mi
2:15 AM69 °FLow clouds.6 mph94%30.01 "Hg10 mi
1:55 AM69 °FLow clouds.5 mph94%30.01 "Hg10 mi
1:35 AM69 °FLow clouds.6 mph94%30.02 "Hg10 mi
1:15 AM69 °FLow clouds.6 mph94%30.01 "Hg10 mi
12:55 AM69 °FLow clouds.5 mph94%30.02 "Hg10 mi
12:35 AM69 °FLow clouds.5 mph94%30.03 "Hg10 mi
12:15 AM69 °FLow clouds.9 mph94%30.03 "Hg10 mi
11:55 PM
Jul 31
68 °FLow clouds.7 mph93%30.03 "Hg10 mi
11:15 PM68 °FLow clouds.7 mph93%30.03 "Hg10 mi
10:55 PM69 °FLow clouds.6 mph92%30.02 "Hg10 mi
10:35 PM69 °FLow clouds.9 mph92%30.01 "Hg10 mi
10:15 PM69 °FLow clouds.9 mph93%30.00 "Hg10 mi
9:55 PM69 °FMostly cloudy.10 mph94%29.99 "Hg10 mi
7:48 PM72 °FDrizzle. Low clouds.9 mph88%29.98 "Hg5 mi
7:47 PM72 °FLow clouds.9 mph88%29.98 "Hg5 mi
6:55 PM73 °FOvercast.12 mph83%29.97 "Hg10 mi
5:55 PM75 °FOvercast.12 mph78%29.97 "Hg10 mi
4:48 PM77 °FOvercast.8 mph69%29.97 "Hg10 mi
3:47 PM79 °FOvercast.14 mph70%29.97 "Hg10 mi
2:55 PM82 °FBroken clouds.16 mph62%29.96 "Hg10 mi
1:55 PM82 °FBroken clouds.16 mph70%29.95 "Hg10 mi
12:47 PM84 °FMore clouds than sun.8 mph58%29.95 "Hg10 mi
Weather by CustomWeather, © 2014

See weather overviewHow to use our weather pages